TimeEDT,TemperatureF,Dew PointF,Humidity,Sea Level PressureIn,VisibilityMPH,Wind Direction,Wind SpeedMPH,Gust SpeedMPH,PrecipitationIn,Events,Conditions,WindDirDegrees,DateUTC
12:51 AM,33.8,32.0,93,30.11,3.0,West,9.2,-,N/A,Snow,Light Snow,280,2013-03-28 04:51:00
12:59 AM,33.8,32.0,93,30.11,2.5,West,11.5,17.3,0.00,Snow,Light Snow,280,2013-03-28 04:59:00
1:09 AM,33.8,32.0,93,30.11,3.0,WNW,8.1,-,0.00,Snow,Light Snow,300,2013-03-28 05:09:00
1:44 AM,33.8,32.0,93,30.11,7.0,WNW,6.9,-,0.00,Snow,Light Snow,290,2013-03-28 05:44:00
1:51 AM,33.1,32.0,96,30.14,5.0,West,8.1,-,0.00,Snow,Light Snow,280,2013-03-28 05:51:00
2:51 AM,32.0,30.9,96,30.15,3.0,WNW,8.1,-,0.00,Snow,Light Snow,290,2013-03-28 06:51:00
3:13 AM,32.0,30.2,93,30.12,2.5,West,8.1,-,0.01,Snow,Light Snow,270,2013-03-28 07:13:00
3:22 AM,32.0,30.2,93,30.12,3.0,West,5.8,-,0.01,Snow,Light Snow,270,2013-03-28 07:22:00
3:41 AM,32.0,30.2,93,30.12,2.5,West,8.1,-,0.01,Snow,Light Snow,270,2013-03-28 07:41:00
3:46 AM,32.0,30.2,93,30.12,3.0,West,6.9,-,0.01,Snow,Light Snow,270,2013-03-28 07:46:00
3:51 AM,32.0,30.9,96,30.14,2.5,West,6.9,-,0.01,Snow,Light Snow,270,2013-03-28 07:51:00
4:51 AM,32.0,30.9,96,30.14,2.0,West,6.9,-,0.01,Snow,Light Snow,280,2013-03-28 08:51:00
5:51 AM,32.0,30.9,96,30.15,2.5,West,8.1,-,0.02,Snow,Light Snow,270,2013-03-28 09:51:00
6:48 AM,32.0,30.2,93,30.13,3.0,West,8.1,-,0.01,Snow,Light Snow,260,2013-03-28 10:48:00
6:51 AM,32.0,30.9,96,30.16,3.0,West,8.1,-,0.01,Snow,Light Snow,260,2013-03-28 10:51:00
7:51 AM,33.1,32.0,96,30.18,6.0,WSW,8.1,-,0.00,Snow,Light Snow,250,2013-03-28 11:51:00
8:02 AM,33.8,32.0,93,30.16,5.0,West,6.9,-,0.00,Snow,Light Snow,270,2013-03-28 12:02:00
8:30 AM,33.8,32.0,93,30.16,4.0,West,8.1,-,0.00,Snow,Light Snow,260,2013-03-28 12:30:00
8:37 AM,33.8,32.0,93,30.16,5.0,West,6.9,-,0.00,Snow,Light Snow,260,2013-03-28 12:37:00
8:51 AM,33.8,30.2,87,30.16,6.0,WSW,6.9,-,N/A,Snow,Light Snow,250,2013-03-28 12:51:00
9:08 AM,33.8,32.0,93,30.17,3.0,WSW,6.9,-,0.00,Snow,Light Snow,250,2013-03-28 13:08:00
9:51 AM,33.1,30.9,92,30.20,5.0,West,8.1,-,0.00,Snow,Light Snow,270,2013-03-28 13:51:00
9:58 AM,33.8,30.2,87,30.18,5.0,West,6.9,-,0.00,Snow,Light Snow,270,2013-03-28 13:58:00
10:51 AM,34.0,32.0,92,30.22,10.0,West,6.9,-,0.00,,Overcast,260,2013-03-28 14:51:00
11:31 AM,33.8,32.0,93,30.20,10.0,West,6.9,-,N/A,,Overcast,270,2013-03-28 15:31:00
11:51 AM,33.8,32.0,93,30.20,10.0,West,6.9,-,N/A,,Overcast,270,2013-03-28 15:51:00
12:40 PM,35.6,33.8,93,30.21,10.0,West,8.1,-,N/A,,Overcast,270,2013-03-28 16:40:00
12:51 PM,35.1,33.1,92,30.23,10.0,West,8.1,-,N/A,,Overcast,260,2013-03-28 16:51:00
1:51 PM,35.1,32.0,89,30.24,10.0,West,10.4,-,N/A,,Overcast,260,2013-03-28 17:51:00
2:27 PM,35.6,32.0,87,30.21,10.0,WSW,10.4,-,N/A,,Overcast,240,2013-03-28 18:27:00
2:51 PM,36.0,32.0,86,30.24,10.0,West,13.8,-,N/A,,Overcast,260,2013-03-28 18:51:00
3:36 PM,37.4,30.2,75,30.21,10.0,West,11.5,19.6,N/A,,Overcast,260,2013-03-28 19:36:00
3:51 PM,37.0,30.9,79,30.23,10.0,West,12.7,-,N/A,,Overcast,260,2013-03-28 19:51:00
4:07 PM,37.4,30.2,75,30.20,10.0,West,10.4,-,N/A,,Overcast,260,2013-03-28 20:07:00
4:31 PM,35.6,30.2,81,30.21,10.0,WSW,10.4,-,N/A,,Overcast,250,2013-03-28 20:31:00
4:51 PM,36.0,30.0,79,30.24,10.0,West,11.5,-,N/A,,Overcast,260,2013-03-28 20:51:00
5:51 PM,36.0,28.9,76,30.24,10.0,WSW,11.5,20.7,N/A,,Overcast,250,2013-03-28 21:51:00
6:51 PM,36.0,28.9,76,30.25,10.0,WSW,11.5,-,N/A,,Overcast,250,2013-03-28 22:51:00
7:51 PM,37.0,28.0,70,30.26,10.0,WSW,9.2,-,N/A,,Overcast,250,2013-03-28 23:51:00
8:51 PM,37.0,28.0,70,30.27,10.0,WSW,6.9,-,N/A,,Overcast,250,2013-03-29 00:51:00
9:51 PM,37.0,28.9,73,30.27,10.0,WSW,5.8,-,N/A,,Overcast,250,2013-03-29 01:51:00
10:51 PM,36.0,30.0,79,30.27,10.0,SW,4.6,-,N/A,,Overcast,220,2013-03-29 02:51:00
11:51 PM,36.0,30.0,79,30.26,10.0,SW,4.6,-,N/A,,Overcast,230,2013-03-29 03:51:00